1335484833059,19.7221
1335484893059,19.7559
1335484953059,19.7438
1335485013059,19.7862
1335485073059,19.7635
1335485133059,19.8412
1335485193059,19.8628
1335485253059,19.8687
1335485313059,19.9124
1335485373059,19.7924
1335485433059,19.8190
1335485493059,19.8037
1335485553059,19.7043
1335485613059,19.7619
1335485673059,19.7239
1335485733059,19.8021
1335485793059,19.7138
1335485853059,19.7417
1335485913059,19.7455
1335485973059,19.7497
1335486033059,19.7380
1335486093059,19.6514
1335486153059,19.7659
1335486213059,19.7246
1335486273059,19.6610
1335486333059,19.7099
1335486393059,19.6876
1335486453059,19.6789
1335486513059,19.7628
1335486573059,19.6832
1335486633059,19.6804
1335486693059,19.6659
1335486753059,19.6428
1335486813059,19.6726
1335486873059,19.7050
1335486933059,19.6421
1335486993059,19.6444
1335487053059,19.6104
1335487113059,19.6493
1335487173059,19.6828
1335487233059,19.6330
1335487293059,19.6314
1335487353059,19.6453
1335487413059,19.6427
1335487473059,19.6151
1335487533059,19.6552
1335487593059,19.6619
1335487653059,19.6439
1335487713059,19.6239
1335487773059,19.6126
1335487833059,19.6384
1335487893059,19.6365
1335487953059,19.6440
1335488013059,19.5900
1335488073059,19.6280
1335488133059,19.6436
1335488193059,19.6597
1335488253059,19.6519
1335488313059,19.6959
1335488373059,19.7029
1335488433070,19.5936
1335488493070,19.6773
1335488553070,19.5136
1335488613070,19.6362
1335488673070,19.6618
1335488733070,19.6340
1335488793070,19.6937
1335488853070,19.7197
1335488913070,19.7467
1335488973070,19.7907
1335489033070,19.7299
1335489093070,19.7364
1335489153070,19.7745
1335489213070,19.7593
1335489273070,19.7276
1335489333070,19.7182
1335489393070,19.7218
1335489453070,19.7300
1335489513070,19.6634
1335489573070,19.7085
1335489633070,19.6628
1335489693070,19.6687
1335489753070,19.7381
1335489813070,19.7573
1335489873070,19.7267
1335489933070,19.6085
1335489993070,19.6586
1335490053070,19.5942
1335490113070,19.6280
1335490173070,19.6412
1335490233070,19.6293
1335490293070,19.5979
1335490353070,19.5823
1335490413070,19.6213
1335490473070,19.6555
1335490533070,19.6347
1335490593070,19.5886
1335490653070,19.5488
1335490713070,19.6330
1335490773070,19.6357
1335490833070,19.6760
1335490893070,19.6112
1335490953070,19.6201
1335491013070,19.6127
1335491073070,19.6054
1335491133070,19.6133
1335491193070,19.5640
1335491253070,19.5992
1335491313070,19.6197
1335491373070,19.5776
1335491433070,19.6009
1335491493070,19.6130
1335491553070,19.6462
1335491613070,19.5732
1335491673070,19.6010
1335491733070,19.7424
1335491793070,19.7346
1335491853070,19.6586
1335491913070,19.6798
1335491973070,19.5954
1335492033081,19.7305
1335492093081,19.8351
1335492153081,20.0499
1335492213081,19.9045
1335492273081,19.7082
1335492333081,19.6892
1335492393081,19.7354
1335492453081,19.6764
1335492513081,19.6840
1335492573081,19.6040
1335492633081,19.6456
1335492693081,19.6396
1335492753081,19.5870
1335492813081,19.5999
1335492873081,19.6144
1335492933081,19.6282
1335492993081,19.5911
1335493053081,19.6271
1335493113081,19.5860
1335493173081,19.6316
1335493233081,19.6112
1335493293081,19.6274
1335493353081,19.6168
1335493413081,19.6086
1335493473081,19.6026
1335493533081,19.6133
1335493593081,19.6451
1335493653081,19.5684
1335493713081,19.5963
1335493773081,19.5868
1335493833081,19.6248
1335493893081,19.5870
1335493953081,19.5763
1335494013081,19.6432
1335494073081,19.6136
1335494133081,19.6169
1335494193081,19.5953
1335494253081,19.6535
1335494313081,19.6122
1335494373081,19.6343
1335494433081,19.6225
1335494493081,19.6457
1335494553081,19.6017
1335494613081,19.6127
1335494673081,19.5990
1335494733081,19.5656
1335494793081,19.5455
1335494853081,19.5744
1335494913081,19.5219
1335494973081,19.5786
1335495033081,19.5849
1335495093081,19.5369
1335495153081,19.5641
1335495213081,19.5696
1335495273081,19.5483
1335495333081,19.5498
1335495393081,19.5349
1335495453081,19.5735
1335495513081,19.5197
1335495573081,19.5428
1335495633091,19.5610
1335495693091,19.5512
1335495753091,19.6067
1335495813091,19.6463
1335495873091,19.6153
1335495933091,19.6696
1335495993091,19.6316
1335496053091,19.5993
1335496113091,19.5911
1335496173091,19.6094
1335496233091,19.5992
1335496293091,19.5884
1335496353091,19.6161
1335496413091,19.5897
1335496473091,19.6368
1335496533091,19.6140
1335496593091,19.5828
1335496653091,19.6129
1335496713091,19.5511
1335496773091,19.5376
1335496833091,19.5546
1335496893092,19.4732
1335496953091,19.5819
1335497013091,19.5133
1335497073091,19.5485
1335497133091,19.5580
1335497193091,19.5577
1335497253091,19.5616
1335497313091,19.5517
1335497373091,19.5905
1335497433091,19.5950
1335497493091,19.6419
1335497553091,19.5405
1335497613091,19.5415
1335497673091,19.6099
1335497733091,19.6104
1335497793091,19.6231
1335497853091,19.5957
1335497913091,19.5594
1335497973091,19.5937
1335498033091,19.5530
1335498093091,19.5632
1335498153091,19.5178
1335498213091,19.5794
1335498273091,19.6038
1335498333091,19.5720
1335498393091,19.5766
1335498453091,19.5779
1335498513091,19.6505
1335498573091,19.6103
1335498633091,19.5647
1335498693091,19.6134
1335498753091,19.5882
1335498813091,19.6266
1335498873091,19.5556
1335498933091,19.5841
1335498993091,19.6346
1335499053091,19.6087
1335499113091,19.6027
1335499173091,19.6267
1335499233102,19.6399
1335499293102,19.6764
1335499353102,19.6070
1335499413102,19.6206
1335499473102,19.5861
1335499533102,19.6001
1335499593102,19.5619
1335499653102,19.5853
1335499713102,19.5739
1335499773102,19.5849
1335499833102,19.6181
1335499893102,19.5631
1335499953102,19.5699
1335500013102,19.5794
1335500073102,19.5746
1335500133102,19.5700
1335500193102,19.6114
1335500253102,19.6335
1335500313102,19.6029
1335500373102,19.5511
1335500433102,19.6098
1335500493102,19.6152
1335500553102,19.5813
1335500613102,19.5414
1335500673102,19.5867
1335500733102,19.5661
1335500793102,19.6240
1335500853102,19.6047
1335500913102,19.6009
1335500973102,19.5636
1335501033102,19.5853
1335501093102,19.5648
1335501153102,19.5888
1335501213102,19.5798
1335501273102,19.5706
1335501333102,19.6175
1335501393102,19.5898
1335501453102,19.5607
1335501513102,19.5678
1335501573102,19.5487
1335501633102,19.5350
1335501693102,19.5715
1335501753102,19.5616
1335501813102,19.5479
1335501873102,19.5776
1335501933102,19.5338
1335501993102,19.5390
1335502053102,19.6169
1335502113102,19.4782
1335502173102,19.6166
1335502233102,19.5865
1335502293102,19.5718
1335502353102,19.5484
1335502413102,19.6333
1335502473102,19.6924
1335502533102,19.6149
1335502593102,19.6392
1335502653102,19.6472
1335502713102,19.6183
1335502773102,19.7075
1335502833113,19.6407
1335502893113,19.5944
1335502953113,19.6822
1335503013113,19.6471
1335503073113,19.6640
1335503133113,19.7321
1335503193113,19.6416
1335503253113,19.6242
1335503313113,19.5946
1335503373113,19.5759
1335503433113,19.5952
1335503493113,19.5754
1335503553113,19.6422
1335503613113,19.5545
1335503673113,19.6228
1335503733113,19.6085
1335503793113,19.5949
1335503853113,19.5928
1335503913113,19.6025
1335503973113,19.6328
1335504033113,19.6091
1335504093113,19.5689
1335504153113,19.5614
1335504213113,19.5558
1335504273113,19.5752
1335504333113,19.5996
1335504393113,19.5804
1335504453113,19.5764
1335504513113,19.5740
1335504573113,19.5820
1335504633113,19.5862
1335504693113,19.5213
1335504753113,19.6105
1335504813113,19.5724
1335504873113,19.5886
1335504933113,19.6153
1335504993113,19.5764
1335505053113,19.5592
1335505113113,19.5845
1335505173113,19.6000
1335505233113,19.5690
1335505293113,19.5995
1335505353113,19.6098
1335505413113,19.5662
1335505473113,19.6404
1335505533113,19.6735
1335505593113,19.6344
1335505653113,19.6429
1335505713113,19.6709
1335505773113,19.6713
1335505833113,19.7096
1335505893113,19.6901
1335505953113,19.6146
1335506013113,19.7115
1335506073113,19.7135
1335506133113,19.7260
1335506193113,19.7035
1335506253113,19.6998
1335506313113,19.6610
1335506373113,19.6859
1335506433123,19.6561
1335506493123,19.6187
1335506553123,19.6636
1335506613123,19.6277
1335506673123,19.6535
1335506733123,19.6472
1335506793123,19.6610
1335506853123,19.6761
1335506913123,19.6465
1335506973123,19.6506
1335507033123,19.6701
1335507093123,19.6348
1335507153123,19.6034
1335507213123,19.6115
1335507273123,19.6586
1335507333123,19.6279
1335507393123,19.6512
1335507453123,19.6451
1335507513123,19.6010
1335507573123,19.5838
1335507633123,19.6070
1335507693123,19.6201
1335507753123,19.5841
1335507813123,19.5918
1335507873123,19.5706
1335507933123,19.6511
1335507993123,19.6084
1335508053123,19.6242
1335508113123,19.5838
1335508173123,19.5647
1335508233123,19.5866
1335508293123,19.6526
1335508353123,19.6173
1335508413123,19.6207
1335508473123,19.5743
1335508533123,19.6113
1335508593123,19.5697
1335508653123,19.5573
1335508713123,19.6253
1335508773123,19.6267
1335508833123,19.6413
1335508893123,19.5352
1335508953123,19.5473
1335509013123,19.6004
1335509073123,19.6227
1335509133123,19.6089
1335509193123,19.5793
1335509253123,19.5651
1335509313123,19.5748
1335509373123,19.5907
1335509433123,19.6161
1335509493123,19.5917
1335509553123,19.6343
1335509613123,19.6144
1335509673123,19.6070
1335509733123,19.5452
1335509793123,19.5866
1335509853123,19.5741
1335509913123,19.5755
1335509973123,19.5877
1335510033133,19.5624
1335510093133,19.6032
1335510153133,19.5598
1335510213133,19.6171
1335510273133,19.5870
1335510333133,19.5715
1335510393133,19.6411
1335510453133,19.6110
1335510513133,19.5658
1335510573133,19.6156
1335510633133,19.6122
1335510693133,19.5544
1335510753133,19.5770
1335510813133,19.6440
1335510873133,19.6061
1335510933133,19.6123
1335510993133,19.5624
1335511053133,19.5830
1335511113133,19.5910
1335511173133,19.6166
1335511233133,19.6067
1335511293133,19.6443
1335511353133,19.5916
1335511413133,19.6335
1335511473133,19.6289
1335511533133,19.6239
1335511593133,19.5787
1335511653133,19.5378
1335511713133,19.5614
1335511773133,19.4721
1335511833133,19.5998
1335511893133,19.5506
1335511953133,19.5235
1335512013133,19.5698
1335512073133,19.5479
1335512133133,19.6852
1335512193133,19.5954
1335512253133,19.7054
1335512313133,19.7169
1335512373133,19.6574
1335512433133,19.6669
1335512493133,19.6150
1335512553133,19.6188
1335512613133,19.6473
1335512673133,19.6721
1335512733133,19.6315
1335512793133,19.6839
1335512853133,19.6997
1335512913133,19.6678
1335512973133,19.6792
1335513033133,19.6030
1335513093133,19.6233
1335513153133,19.6201
1335513213133,19.6144
1335513273133,19.6178
1335513333133,19.5702
1335513393133,19.5823
1335513453133,19.5733
1335513513133,19.5717
1335513573133,19.5539
1335513633144,19.5563
1335513693144,19.5774
1335513753144,19.6409
1335513813144,19.6395
1335513873144,19.6078
1335513933144,19.6181
1335513993144,19.5734
1335514053144,19.5942
1335514113144,19.6032
1335514173144,19.6584
1335514233144,19.6996
1335514293144,19.7362
1335514353144,19.7643
1335514413144,19.7409
1335514473144,19.7607
1335514533144,19.7596
1335514593144,19.8023
1335514653144,19.8774
1335514713144,19.9880
1335514773144,20.3587
1335514833144,20.8649
1335514893144,20.6695
1335514953144,20.5673
1335515013144,20.4745
1335515073144,20.4477
1335515133144,20.3592
1335515193144,20.2425
1335515253144,20.1811
1335515313144,20.1776
1335515373144,20.1360
1335515433144,20.0391
1335515493144,20.0601
1335515553144,20.0723
1335515613144,20.0398
1335515673144,20.0381
1335515733144,19.9787
1335515793144,19.9571
1335515853144,19.9829
1335515913144,19.9500
1335515973144,19.9239
1335516033144,19.8857
1335516093144,19.8584
1335516153144,19.8620
1335516213144,19.8608
1335516273144,19.8329
1335516333144,19.8755
1335516393144,19.8510
1335516453144,19.7415
1335516513144,19.8261
1335516573144,19.8463
1335516633144,19.8336
1335516693144,19.7833
1335516753144,19.7576
1335516813144,19.7849
1335516873144,19.7960
1335516933144,19.7537
1335516993144,19.7876
1335517053144,19.7804
1335517113144,19.8402
1335517173144,19.8438
1335517233154,19.7719
1335517293154,19.7563
1335517353154,19.7679
1335517413154,19.7144
1335517473154,19.7796
1335517533154,19.6945
1335517593154,19.8046
1335517653154,19.7399
1335517713154,19.7296
1335517773154,19.7049
1335517833154,19.7799
1335517893154,19.6800
1335517953154,19.7560
1335518013154,19.7300
1335518073154,19.6570
1335518133154,19.7107
1335518193154,19.7555
1335518253154,19.7948
1335518313154,19.7097
1335518373154,19.7557
1335518433154,19.6926
1335518493154,19.6769
1335518553154,19.7745
1335518613154,19.7416
1335518673154,19.7372
1335518733154,19.7347
1335518793154,19.7527
1335518853154,19.7518
1335518913154,19.7093
1335518973154,19.7090
1335519033154,19.6639
1335519093154,19.6914
1335519153154,19.7094
1335519213154,19.6933
1335519273154,19.7096
1335519333154,19.7142
1335519393154,19.7351
1335519453154,19.7359
1335519513154,19.7149
1335519573154,19.7616
1335519633154,19.7655
1335519693154,19.7549
1335519753154,19.7100
1335519813154,19.6846
1335519873154,19.7214
1335519933154,19.6762
1335519993154,19.7321
1335520053154,19.7515
1335520113154,19.7803
1335520173154,19.8068
1335520233154,19.8440
1335520293154,19.8452
1335520353154,19.8017
1335520413154,19.8316
1335520473154,19.8293
1335520533154,19.8467
1335520593154,19.7699
1335520653154,19.7777
1335520713154,19.7892
1335520773154,19.8042
1335520833165,19.7852
1335520893165,19.7864
1335520953165,19.7609
1335521013165,19.7326
1335521073165,19.7734
1335521133165,19.7473
1335521193165,19.7729
1335521253165,19.7427
1335521313165,19.7418
1335521373165,19.7780
1335521433165,19.7762
1335521493165,19.8322
1335521553165,19.7964
1335521613165,19.8434
1335521673165,19.7925
1335521733165,19.8235
1335521793165,19.7815
1335521853165,19.8007
1335521913165,19.8287
1335521973165,19.7695
1335522033165,19.8198
1335522093165,19.7915
1335522153165,19.7853
1335522213165,19.7531
1335522273165,19.8330
1335522333165,19.7578
1335522393165,19.8193
1335522453165,19.8082
1335522513165,19.7707
1335522573165,19.7906
1335522633165,19.8017
1335522693165,19.7493
1335522753165,19.8317
1335522813165,19.8365
1335522873165,19.8695
1335522933165,19.8283
1335522993165,19.8011
1335523053165,19.7915
1335523113165,19.8028
1335523173165,19.8765
1335523233165,19.8336
1335523293165,19.8751
1335523353165,19.9280
1335523413165,19.8695
1335523473165,19.9258
1335523533165,19.9166
1335523593165,19.8551
1335523653165,19.8749
1335523713165,19.9355
1335523773165,19.9574
1335523833165,19.9571
1335523893165,20.0053
1335523953165,19.9168
1335524013165,19.9078
1335524073165,19.9110
1335524133165,19.8734
1335524193165,19.8986
1335524253165,19.9277
1335524313165,19.8999
1335524373165,19.8469
1335524433175,19.8171
1335524493175,19.8349
1335524553175,19.8486
1335524613175,19.8988
1335524673175,19.8441
1335524733175,19.8741
1335524793175,19.9132
1335524853175,19.8644
1335524913175,19.9484
1335524973175,19.9305
1335525033175,19.8970
1335525093175,19.9122
1335525153175,19.8767
1335525213175,19.8579
1335525273175,19.8690
1335525333175,19.8375
1335525393175,19.8277
1335525453175,19.8342
1335525513175,19.7724
1335525573175,19.7855
1335525633175,19.8238
1335525693175,19.8377
1335525753175,19.8050
1335525813175,19.7477
1335525873175,19.7773
1335525933175,19.7999
1335525993175,19.7391
1335526053175,19.8026
1335526113175,19.8112
1335526173175,19.7604
1335526233175,19.7431
1335526293175,19.8462
1335526353175,19.8080
1335526413175,19.8354
1335526473175,19.7406
1335526533175,19.7383
1335526593175,19.7326
1335526653175,19.7471
1335526713175,19.7793
1335526773175,19.6949
1335526833175,19.7547
1335526893175,19.7778
1335526953175,19.7681
1335527013175,19.7507
1335527073175,19.8213
1335527133175,19.7408
1335527193175,19.7780
1335527253175,19.7291
1335527313175,19.7336
1335527373175,19.7906
1335527433175,19.7146
1335527493175,19.7402
1335527553175,19.7132
1335527613175,19.7779
1335527673175,19.7354
1335527733175,19.6566
1335527793175,19.7167
1335527853175,19.7673
1335527913175,19.7216
1335527973175,19.7586
1335528033185,19.7259
1335528093185,19.7897
1335528153185,19.7744
1335528213185,19.7496
1335528273185,19.7619
1335528333185,19.7546
1335528393185,19.7799
1335528453185,19.7831
1335528513185,19.7912
1335528573185,19.7910
1335528633185,19.7268
1335528693185,19.7423
1335528753185,19.6950
1335528813185,19.8156
1335528873185,19.7916
1335528933185,19.6974
1335528993185,19.7064
1335529053185,19.7467
1335529113185,19.7497
1335529173185,19.7852
1335529233185,19.6907
1335529293185,19.7379
1335529353185,19.7524
1335529413185,19.7385
1335529473185,19.7985
1335529533185,19.7367
1335529593185,19.7467
1335529653185,19.7426
1335529713185,19.7453
1335529773185,19.7679
1335529833185,19.7453
1335529893185,19.6912
1335529953185,19.6475
1335530013185,19.6781
1335530073185,19.6810
1335530133185,19.6529
1335530193185,19.6338
1335530253185,19.6554
1335530313185,19.6844
1335530373185,19.7452
1335530433185,19.6931
1335530493185,19.7158
1335530553185,19.6789
1335530613185,19.7073
1335530673185,19.6448
1335530733185,19.6465
1335530793185,19.7164
1335530853185,19.6336
1335530913185,19.6464
1335530973185,19.6603
1335531033185,19.6668
1335531093185,19.6754
1335531153185,19.7128
1335531213185,19.7247
1335531273185,19.6864
1335531333185,19.6699
1335531393185,19.6827
1335531453185,19.6912
1335531513185,19.6213
1335531573185,19.6709
1335531633195,19.7116
1335531693195,19.6988
1335531753195,19.7428
1335531813195,19.7327
1335531873195,19.7362
1335531933195,19.7759
1335531993195,19.7313
1335532053195,19.7486
1335532113195,19.6966
1335532173195,19.7368
1335532233195,19.6882
1335532293195,19.6659
1335532353195,19.7373
1335532413195,19.6974
1335532473195,19.6878
1335532533195,19.7478
1335532593195,19.7036
1335532653195,19.6373
1335532713195,19.6441
1335532773195,19.6343
1335532833195,19.8137
1335532893195,19.7546
1335532953195,19.7656
1335533013195,19.7331
1335533073195,19.7112
1335533133195,19.7632
1335533193195,19.7624
1335533253195,19.7447
1335533313195,19.7785
1335533373195,19.6401
1335533433195,19.7266
1335533493195,19.6678
1335533553195,19.6600
1335533613195,19.6700
1335533673195,19.6218
1335533733195,19.6441
1335533793195,19.6765
1335533853195,19.5950
1335533913195,19.6431
1335533973195,19.5954
1335534033195,19.6627
1335534093195,19.6559
1335534153195,19.6929
1335534213195,19.6679
1335534273195,19.6269
1335534333195,19.7219
1335534393195,19.7021
1335534453195,19.6875
1335534513195,19.6939
1335534573195,19.6851
1335534633195,19.6491
1335534693195,19.7325
1335534753195,19.7235
1335534813195,19.6893
1335534873195,19.7438
1335534933195,19.6988
1335534993195,19.6783
1335535053195,19.6896
1335535113195,19.7533
1335535173195,19.6644
1335535233206,19.7439
1335535293206,19.8120
1335535353206,19.7221
1335535413206,19.6957
1335535473206,19.6768
1335535533206,19.6804
1335535593206,19.7032
1335535653206,19.6826
1335535713206,19.6731
1335535773206,19.6799
1335535833206,19.6971
1335535893206,19.6860
1335535953206,19.6775
1335536013206,19.6660
1335536073206,19.6310
1335536133206,19.7315
1335536193206,19.6662
1335536253206,19.6955
1335536313206,19.6677
1335536373206,19.6877
1335536433206,19.7276
1335536493206,19.7051
1335536553206,19.6732
1335536613206,19.6474
1335536673206,19.6799
1335536733206,19.7056
1335536793206,19.6834
1335536853206,19.6876
1335536913206,19.7150
1335536973206,19.6824
1335537033206,19.6250
1335537093206,19.6846
1335537153206,19.6606
1335537213206,19.6669
1335537273206,19.6760
1335537333206,19.6352
1335537393206,19.6925
1335537453206,19.6573
1335537513206,19.6671
1335537573206,19.6618
1335537633206,19.6826
1335537693206,19.6961
1335537753206,19.6400
1335537813206,19.7303
1335537873206,19.7044
1335537933206,19.7092
1335537993206,19.6517
1335538053206,19.6585
1335538113206,19.6658
1335538173206,19.7584
1335538233206,19.7090
1335538293206,19.6481
1335538353206,19.7756
1335538413206,19.7307
1335538473206,19.7439
1335538533206,19.7165
1335538593206,19.7043
1335538653206,19.7454
1335538713206,19.7413
1335538773206,19.7471
1335538833216,19.7482
1335538893216,19.7208
1335538953216,19.7355
1335539013216,19.6876
1335539073216,19.7381
1335539133216,19.7609
1335539193216,19.7344
1335539253216,19.6857
1335539313216,19.7496
1335539373216,19.7349
1335539433216,19.6905
1335539493216,19.7535
1335539553216,19.7150
1335539613216,19.6739
1335539673216,19.7975
1335539733216,19.7539
1335539793216,19.7182
1335539853216,19.7471
1335539913216,19.7616
1335539973216,19.8390
1335540033216,19.8082
1335540093216,19.7815
1335540153216,19.7714
1335540213216,19.7726
1335540273216,19.7528
1335540333216,19.8250
1335540393216,19.8030
1335540453216,19.7561
1335540513216,19.7719
1335540573216,19.7690
1335540633216,19.7888
1335540693216,19.8233
1335540753216,19.7681
1335540813216,19.8968
1335540873216,19.8630
1335540933216,19.8780
1335540993216,19.8702
1335541053216,19.9031
1335541113216,19.8955
1335541173216,19.8694
1335541233216,19.8367
1335541293216,19.7980
1335541353216,19.8805
1335541413216,19.8884
1335541473216,19.8824
1335541533216,19.8048
1335541593216,19.7932
1335541653216,19.7832
1335541713216,19.8356
1335541773216,19.8092
1335541833216,19.7992
1335541893216,19.8057
1335541953216,19.8258
1335542013216,19.7646
1335542073216,19.8419
1335542133216,19.7978
1335542193216,19.8266
1335542253216,19.8624
1335542313216,19.8528
1335542373216,19.7785
1335542433226,19.8061
1335542493226,19.7995
1335542553226,19.8326
1335542613226,19.8532
1335542673226,19.8497
1335542733226,19.8652
1335542793226,19.8364
1335542853226,19.8542
1335542913226,19.8467
1335542973226,19.8931
1335543033226,19.8967
1335543093226,19.7018
1335543153226,19.8577
1335543213226,19.9331
1335543273226,19.8779
1335543333226,19.8840
1335543393226,19.8737
1335543453226,19.8884
1335543513226,19.9021
1335543573226,19.9192
1335543633226,19.9159
1335543693226,19.9240
1335543753226,19.8272
1335543813226,19.8522
1335543873226,19.8951
1335543933226,19.9271
1335543993226,19.8774
1335544053226,19.8598
1335544113226,19.8814
1335544173226,19.8307
1335544233226,19.8829
1335544293226,19.8807
1335544353226,19.9178
1335544413226,19.9281
1335544473226,19.9128
1335544533226,19.8874
1335544593226,19.8639
1335544653226,19.8792
1335544713226,19.9016
1335544773226,19.8931
1335544833226,19.8187
1335544893226,19.7920
1335544953226,19.9236
1335545013226,19.9186
1335545073226,19.9494
1335545133226,19.9923
1335545193226,19.9584
1335545253226,20.0262
1335545313226,20.0562
1335545373226,20.0016
1335545433226,19.9627
1335545493226,19.9423
1335545553226,19.9383
1335545613226,19.9668
1335545673226,19.8732
1335545733226,19.9201
1335545793226,19.9782
1335545853226,19.8564
1335545913226,19.9114
1335545973226,19.8775
1335546033236,19.9041
1335546093236,19.8188
1335546153236,19.7681
1335546213236,19.8101
1335546273236,19.8140
1335546333236,19.8339
1335546393236,19.8221
1335546453236,19.8023
1335546513236,19.8664
1335546573236,19.9099
1335546633236,19.9810
1335546693236,19.9820
1335546753236,19.9859
1335546813236,19.8856
1335546873236,19.8676
1335546933236,19.9283
1335546993236,19.9130
1335547053236,19.6871
1335547113236,19.8072
1335547173236,19.8281
1335547233236,19.8536
1335547293236,19.9178
1335547353236,19.8971
1335547413236,19.9877
1335547473236,19.9057
1335547533236,19.9213
1335547593236,19.9136
1335547653236,19.9121
1335547713236,19.9211
1335547773236,19.8997
1335547833236,19.9854
1335547893236,19.8910
1335547953236,19.9014
1335548013236,19.9846
1335548073236,19.9601
1335548133236,19.9468
1335548193236,19.9295
1335548253236,19.9524
1335548313236,19.8628
1335548373236,19.8578
1335548433236,19.8856
1335548493236,19.8465
1335548553236,19.8908
1335548613236,19.8562
1335548673236,19.9028
1335548733236,19.9116
1335548793236,19.8859
1335548853236,19.8981
1335548913236,19.8845
1335548973236,19.8738
1335549033236,19.8724
1335549093236,19.8503
1335549153236,19.8590
1335549213236,19.8833
1335549273236,19.8876
1335549333236,19.8415
1335549393236,19.8892
1335549453236,19.8543
1335549513236,19.8761
1335549573236,19.9177
1335549633246,19.9068
1335549693246,19.9217
1335549753246,19.8946
1335549813246,19.8212
1335549873246,19.8780
1335549933246,19.9469
1335549993246,19.8821
1335550053246,19.8742
1335550113246,19.9694
1335550173246,19.8960